Vertical_Velocity
3 2 1 0 -0 -0 0 0 1 1 1 1 1 -0 -1 1 0 0 0 1 0 0 1 2 3 4 5 4 3 2 1 0 0 -0 0 1 0 1 2 3 3 4 4 4 4 4 4 3 4 3 3 2 3 3 2 1 1 0 -0 -0 0 1 1 0 0 0 1 1 1
2 1 1 2 1 1 2 2 2 1 1 1 1 0 0 1 1 1 0 1 0 1 3 3 4 4 4 2 2 3 2 1 0 0 1 1 1 2 3 3 4 4 4 4 4 4 4 4 3 3 2 2 2 2 1 0 1 0 -0 -0 1 2 2 1 1 2 2 2 2
2 3 3 2 1 1 1 1 0 0 -0 -0 0 1 1 1 1 1 1 1 2 4 4 2 2 2 2 2 2 3 2 1 1 1 1 1 2 3 3 3 4 4 4 4 4 4 4 4 3 3 2 2 2 1 0 0 1 1 1 1 2 3 3 2 3 4 3 3 2
4 3 2 0 -1 -1 -2 -2 -1 -1 -1 -0 1 1 1 1 1 1 2 2 3 2 1 1 1 2 2 2 2 2 2 2 2 2 2 1 2 3 3 4 4 4 4 4 4 4 4 4 3 3 2 2 2 2 1 2 3 3 3 3 4 4 4 4 4 4 4 3 3
3 1 -0 -1 -2 -2 -1 -0 0 0 -0 1 2 2 1 1 2 1 1 1 -0 -1 -0 2 2 2 2 3 3 3 3 3 3 2 2 2 2 3 4 4 4 4 4 4 4 4 4 4 3 2 1 2 2 3 4 5 5 5 4 5 5 5 5 5 5 4 4 3 3
1 0 -0 -0 -0 -0 0 0 1 1 1 2 2 1 0 0 0 -0 -1 -2 -1 0 2 3 2 2 2 2 2 3 3 3 3 2 2 2 3 3 4 3 3 4 4 5 5 5 5 4 3 2 1 2 3 4 5 6 6 5 4 4 4 5 6 5 4 4 3 3 3
0 0 -0 -1 -1 -1 -1 -1 1 1 2 1 1 -0 -1 -1 -1 -1 -1 -1 2 2 2 2 2 1 1 2 2 2 3 3 3 3 3 3 3 3 3 3 4 4 5 5 6 6 5 4 3 2 1 3 4 4 4 5 5 4 3 3 4 5 6 5 4 3 3 2 2
2 1 -0 -2 -2 -2 -1 -1 1 1 1 -0 -1 -1 -1 -1 -0 -0 0 2 2 1 1 2 1 1 2 2 2 2 3 3 3 3 3 3 3 3 3 4 4 4 4 5 6 6 5 4 3 2 2 2 3 3 3 4 4 3 2 3 4 6 6 5 4 3 2 1 2
2 1 0 -1 -1 -1 -1 0 1 1 -0 -2 -1 -1 -0 0 0 1 1 1 0 1 2 2 2 2 3 3 2 3 3 3 3 3 3 3 3 3 3 4 4 4 4 5 5 5 4 4 3 2 2 3 3 3 3 5 4 3 2 3 5 5 5 5 4 3 2 1 -0
-0 -1 -0 -0 -1 -1 1 2 1 1 0 -1 -0 0 1 1 0 0 0 0 2 2 2 1 2 3 3 2 3 3 3 4 4 4 3 3 3 3 3 3 3 3 4 4 4 5 4 4 3 2 2 3 3 4 4 5 4 4 3 4 5 5 5 4 4 3 2 -0 -2
-2 -1 -1 -1 -1 0 2 3 1 1 1 0 0 0 1 0 0 0 1 2 3 2 0 1 3 3 3 2 3 4 4 4 4 4 3 2 2 2 2 2 3 3 4 4 4 4 4 3 3 2 2 3 4 4 5 5 5 5 4 5 5 4 4 3 4 4 3 -0 -2
-0 0 1 1 1 1 2 1 1 0 0 0 -0 0 0 0 0 1 2 3 1 1 1 3 4 3 3 3 4 4 4 4 3 3 3 2 2 2 3 2 3 3 4 4 4 4 4 3 3 3 3 3 4 5 5 6 6 6 5 4 4 3 2 2 4 5 4 2 -0
1 2 2 2 2 2 1 1 1 1 1 0 0 0 1 1 2 2 2 1 1 2 3 3 4 3 3 2 3 3 3 3 3 3 2 2 2 3 3 3 3 3 4 4 4 4 4 4 4 4 4 3 4 4 5 6 6 5 4 3 2 1 1 2 5 6 6 3 1
2 2 2 1 1 1 1 1 1 1 1 1 0 1 2 2 2 2 2 1 1 2 3 3 3 2 2 2 2 2 2 2 2 2 2 2 3 3 3 3 3 4 4 4 4 4 4 4 4 4 4 3 3 4 5 6 4 3 2 1 0 0 2 4 5 6 5 3 2
2 2 1 1 1 1 1 2 1 2 2 1 1 1 2 2 1 1 2 1 2 2 2 2 1 1 1 2 1 2 2 2 2 3 3 3 3 4 4 3 4 4 4 4 4 4 4 4 4 4 4 4 4 5 7 7 5 3 2 1 1 2 4 5 6 5 4 3 3
1 1 1 2 2 2 2 2 2 2 2 1 1 1 2 1 1 1 2 1 1 1 1 0 0 1 1 1 2 2 2 2 2 2 2 2 2 3 3 3 3 3 4 4 4 3 4 4 4 4 4 4 5 7 9 10 8 6 4 4 4 5 6 6 6 5 4 4 4
1 1 1 1 1 1 2 2 2 1 1 1 1 1 2 1 1 1 1 1 1 1 1 0 1 2 2 2 2 2 2 2 1 1 1 1 1 1 1 1 1 2 3 4 3 3 4 5 5 5 5 5 6 7 9 10 10 9 8 7 8 7 7 6 6 5 5 4 4
0 1 1 1 1 1 1 2 2 2 2 2 2 2 2 2 2 1 1 1 1 1 1 1 2 2 2 2 3 3 3 3 2 2 2 2 3 3 3 2 2 3 3 4 3 4 4 5 6 6 6 6 6 6 7 8 9 9 9 9 9 8 7 6 6 5 4 4 3
0 0 1 1 1 2 2 3 3 3 3 3 3 3 3 2 2 2 2 1 1 2 2 2 2 3 3 3 3 3 3 3 3 3 4 4 5 4 4 4 4 4 4 4 5 5 5 5 6 6 5 5 5 5 6 6 8 8 8 8 8 7 7 6 5 5 4 3 2
0 1 1 2 2 3 3 3 3 3 3 3 3 3 3 2 3 2 2 1 2 3 3 3 2 2 2 3 3 3 3 3 3 3 4 4 4 4 3 4 4 4 5 6 6 5 5 5 5 5 5 4 4 4 5 6 7 7 7 6 6 6 6 5 5 4 4 2 1
1 1 2 3 4 4 4 3 3 3 3 3 3 3 3 3 3 3 2 2 2 3 2 2 2 2 2 2 2 2 2 3 3 3 3 3 3 3 3 3 3 3 4 5 4 4 4 4 4 4 4 4 4 4 5 6 6 6 6 5 5 5 5 5 4 4 2 1 0
1 2 3 4 4 4 4 3 3 3 3 3 3 3 3 3 2 2 2 2 2 2 2 1 1 1 1 1 2 2 2 2 2 2 2 2 1 1 2 2 2 2 3 3 3 4 4 4 4 4 4 4 4 4 5 6 6 6 6 5 5 5 5 5 4 3 1 0 0
2 2 3 3 4 4 3 3 3 3 3 3 3 3 2 2 2 2 2 2 1 1 1 1 1 1 1 1 1 1 1 1 1 1 1 1 1 1 1 1 2 2 2 3 4 4 4 4 4 4 4 4 4 4 4 5 6 6 6 6 6 6 5 4 3 2 1 0 1
2 2 2 3 3 3 3 3 3 3 3 2 2 2 2 2 2 1 1 1 1 1 1 1 1 1 1 1 1 1 1 1 1 1 1 1 1 1 1 2 2 2 3 4 5 4 4 4 4 4 4 4 4 4 4 5 5 5 5 6 6 5 5 4 3 2 1 1 1
1 1 2 2 2 3 3 3 3 3 2 2 2 2 2 1 1 1 1 0 0 1 1 1 1 1 1 1 1 1 1 1 1 1 1 1 1 1 1 2 2 3 4 4 4 4 4 4 4 3 3 3 4 4 4 4 4 4 5 5 5 5 4 3 2 1 1 1 1
1 1 1 2 2 2 2 2 2 2 2 1 1 1 1 1 0 0 0 0 0 0 1 1 1 1 1 1 1 1 1 1 1 1 1 1 1 1 2 2 2 3 4 4 4 4 4 3 3 3 3 3 3 3 3 3 4 4 5 5 4 4 3 2 1 1 1 1 1
0 1 1 1 1 1 1 1 1 1 1 0 0 0 0 0 0 0 0 0 0 1 1 1 0 1 1 1 1 1 1 1 1 1 1 1 1 1 2 2 2 3 4 4 4 3 3 3 3 3 3 3 3 3 3 3 4 4 4 4 4 3 2 1 1 1 2 1 1
0 0 0 1 1 0 0 -0 -0 -0 -0 -0 -0 -0 -0 -0 0 0 0 0 0 0 0 0 1 1 1 1 1 1 1 1 1 1 1 1 1 1 1 2 2 3 4 4 3 2 2 2 2 2 2 2 2 2 3 3 4 4 4 3 3 3 2 2 2 2 2 2 3
0 0 0 0 -0 -1 -1 -1 -1 -1 -1 -1 -0 -0 -0 0 0 0 0 0 0 1 1 1 1 1 1 1 1 1 1 1 0 1 1 1 1 1 1 1 2 3 3 3 2 1 1 1 1 1 1 2 2 2 2 3 3 3 3 3 3 3 3 3 3 3 3 3 4
0 -0 -0 -0 -1 -1 -1 -1 -1 -1 -0 -0 -0 0 0 0 0 0 0 0 0 0 0 0 0 0 0 0 0 0 0 0 0 0 0 0 1 1 1 1 1 2 2 2 1 1 1 1 1 0 0 1 1 2 2 3 3 3 3 3 4 4 4 4 4 4 3 3 4
-0 -0 -0 -1 -1 -1 -1 -1 -0 -0 -0 -0 -0 -0 -0 -0 -0 -0 -0 -0 -0 -0 -0 -0 -0 -0 -0 -0 -1 -0 -0 -0 -0 -0 -0 0 0 0 0 0 1 1 1 1 1 1 1 1 0 0 0 0 0 1 3 3 4 4 4 4 4 4 4 4 4 4 4 5 5
-0 -1 -1 -1 -1 -1 -1 -1 -0 -0 -0 -0 -0 -0 -0 -1 -1 -1 -1 -1 -0 -0 -1 -1 -1 -1 -1 -1 -1 -1 -1 -1 -1 -0 -0 -0 -0 -0 -0 0 0 1 1 1 1 1 1 1 1 1 1 0 0 1 3 4 4 4 4 4 4 5 5 5 5 5 5 5 5
-1 -1 -1 -1 -1 -1 -1 -0 -0 -0 -0 -1 -1 -1 -1 -1 -1 -1 -1 -1 -1 -1 -1 -1 -1 -1 -1 -1 -1 -1 -1 -1 -1 -1 -1 -1 -1 -1 -0 -0 0 0 1 0 0 1 1 1 1 1 1 2 1 2 2 4 4 4 4 4 5 6 6 6 5 4 4 4 4
-0 -0 -0 -0 -0 -0 -0 -0 -0 -0 -1 -1 -1 -1 -1 -1 -1 -1 -1 -1 -1 -1 -1 -1 -1 -1 -1 -1 -1 -1 -1 -1 -1 -1 -1 -1 -1 -0 -0 0 0 0 0 0 0 1 1 1 2 2 3 3 3 2 2 2 3 3 3 3 4 4 4 4 3 3 3 3 3
-0 -0 -0 -0 0 0 -0 -0 -0 -1 -1 -1 -1 -1 -1 -1 -1 -1 -1 -1 -1 -1 -1 -1 -1 -1 -1 -1 -1 -1 -1 -1 -0 -0 -0 -1 -1 -0 -0 0 0 0 0 0 0 1 1 2 3 4 4 4 4 3 2 1 1 0 0 0 0 1 1 1 1 1 1 2 2
-0 -0 -0 0 -0 -0 -0 -0 -1 -1 -1 -1 -1 -1 -1 -1 -1 -1 -1 -1 -1 -1 -1 -1 -1 -1 -1 -1 -1 -1 -1 -1 -1 -1 -1 -1 -1 -0 -0 0 0 1 1 1 1 2 3 4 4 5 5 4 4 3 2 1 0 -0 -1 -1 -1 -1 -0 0 0 0 1 1 1
-0 -0 -0 -0 -0 -0 -0 -0 -0 -0 -0 -1 -1 -1 -1 -1 -1 -1 -1 -1 -1 -1 -1 -1 -1 -1 -1 -1 -1 -1 -1 -1 -1 -1 -1 -0 -0 -0 0 1 1 2 2 3 3 4 4 4 4 4 4 3 2 2 1 1 0 -0 -0 -1 -1 -1 0 1 1 1 1 1 2
-0 -0 -0 -0 -0 -0 -0 -0 -0 -0 -0 -0 -1 -1 -1 -1 -1 -1 -1 -1 -1 -1 -1 -1 -1 -1 -1 -1 -1 -1 -1 -0 -0 -0 -0 0 0 1 1 1 2 2 3 3 3 3 3 3 3 3 2 1 1 0 0 0 0 -0 -0 -0 -0 0 1 1 1 1 1 1 2
-1 -1 -1 -0 -0 -0 -0 -1 -1 -1 -1 -1 -1 -1 -1 -1 -1 -1 -1 -1 -1 -1 -1 -1 -1 -1 -1 -1 -1 -1 -0 -0 -0 0 0 0 1 1 1 1 2 2 2 1 1 0 0 0 0 1 1 0 0 0 0 0 -0 -0 0 1 1 1 1 2 2 2 2 2 2
-1 -1 -1 -0 -0 -1 -1 -1 -1 -1 -1 -1 -1 -1 -1 -1 -1 -1 -1 -1 -1 -0 -0 -0 -0 -0 -0 -1 -1 -0 -0 0 0 0 0 0 0 0 -0 0 0 0 -0 -1 -2 -2 -2 -2 -1 -0 0 0 1 1 1 0 0 0 1 2 2 2 2 3 3 2 2 2 2
-1 -0 -0 -0 -0 -1 -1 -1 -1 -1 -1 -1 -1 -1 -1 -1 -1 -1 -1 -1 -0 -0 -0 -0 -0 -0 -0 -0 -1 -1 -0 -0 -0 -1 -1 -1 -1 -2 -2 -2 -2 -2 -2 -3 -2 -2 -1 -1 -0 0 1 1 1 1 1 0 0 0 1 2 3 2 2 2 2 2 1 1 2
Height
1480 1481 1482 1483 1483 1484 1485 1486 1487 1488 1488 1489 1491 1492 1493 1494 1495 1496 1497 1498 1499 1500 1502 1503 1503 1504 1505 1505 1506 1506 1507 1508 1508 1509 1510 1510 1511 1512 1513 1514 1514 1515 1515 1516 1516 1517 1517 1518 1518 1518 1519 1519 1520 1520 1520 1521 1521 1521 1521 1521 1521 1521 1520 1520 1520 1520 1520 1520 1519
1478 1479 1481 1482 1483 1483 1484 1485 1486 1487 1488 1489 1490 1491 1492 1493 1494 1495 1496 1497 1498 1499 1501 1502 1503 1503 1504 1504 1505 1505 1506 1507 1507 1508 1508 1509 1510 1511 1511 1512 1513 1513 1514 1514 1515 1515 1515 1516 1516 1517 1517 1518 1518 1518 1518 1519 1519 1519 1519 1519 1519 1519 1519 1519 1518 1518 1518 1518 1518
1477 1478 1479 1480 1481 1482 1483 1484 1485 1486 1487 1488 1489 1490 1492 1492 1493 1494 1495 1496 1498 1498 1500 1500 1501 1502 1503 1503 1504 1504 1505 1505 1506 1506 1507 1508 1508 1509 1510 1510 1511 1512 1512 1513 1513 1513 1514 1514 1515 1515 1515 1516 1516 1517 1517 1517 1517 1517 1517 1517 1518 1518 1517 1517 1517 1517 1517 1517 1516
1476 1477 1478 1479 1480 1481 1482 1483 1484 1485 1487 1488 1489 1490 1491 1492 1493 1493 1494 1495 1496 1497 1498 1499 1500 1501 1502 1502 1503 1503 1504 1504 1505 1505 1506 1506 1507 1508 1508 1509 1510 1510 1511 1511 1512 1512 1513 1513 1513 1513 1514 1514 1514 1515 1515 1515 1516 1516 1516 1516 1516 1516 1516 1516 1516 1515 1515 1515 1515
1475 1476 1477 1478 1479 1480 1481 1483 1484 1485 1486 1487 1488 1489 1490 1491 1492 1492 1493 1494 1495 1496 1497 1498 1498 1499 1500 1501 1501 1502 1503 1503 1503 1504 1504 1505 1505 1506 1507 1507 1508 1509 1509 1510 1510 1511 1511 1512 1512 1512 1512 1513 1513 1513 1513 1514 1514 1514 1514 1514 1514 1514 1514 1514 1514 1514 1514 1514 1513
1474 1475 1476 1478 1478 1480 1481 1482 1483 1485 1486 1487 1488 1488 1489 1490 1490 1491 1492 1493 1493 1494 1496 1497 1497 1498 1499 1499 1500 1500 1501 1502 1502 1502 1503 1503 1504 1504 1505 1506 1507 1507 1508 1508 1509 1509 1510 1510 1510 1510 1510 1511 1511 1512 1512 1512 1512 1512 1512 1512 1512 1513 1513 1513 1513 1513 1513 1513 1512
1473 1474 1476 1477 1478 1479 1480 1482 1483 1484 1485 1486 1486 1487 1488 1488 1489 1490 1491 1492 1493 1493 1494 1495 1496 1496 1497 1498 1498 1499 1499 1500 1500 1501 1501 1502 1502 1503 1503 1504 1505 1506 1506 1507 1507 1508 1508 1508 1508 1508 1508 1509 1509 1510 1510 1510 1510 1510 1510 1510 1511 1511 1511 1511 1511 1511 1511 1511 1511
1472 1473 1475 1476 1477 1478 1480 1481 1482 1483 1484 1484 1485 1486 1487 1488 1488 1489 1490 1491 1491 1492 1493 1494 1494 1495 1496 1496 1497 1498 1498 1498 1499 1499 1500 1500 1501 1501 1502 1503 1503 1504 1504 1505 1505 1506 1506 1506 1506 1506 1507 1507 1507 1508 1508 1508 1508 1508 1508 1509 1509 1509 1509 1509 1509 1509 1510 1510 1510
1471 1473 1474 1475 1477 1478 1479 1480 1481 1482 1482 1483 1484 1485 1486 1486 1487 1488 1488 1489 1490 1491 1492 1492 1493 1494 1494 1495 1496 1496 1497 1497 1498 1498 1498 1499 1499 1500 1500 1501 1501 1502 1503 1503 1503 1504 1504 1504 1504 1505 1505 1505 1505 1506 1506 1507 1507 1507 1507 1507 1507 1508 1508 1508 1508 1508 1508 1508 1509
1470 1472 1473 1474 1476 1477 1478 1479 1480 1480 1481 1482 1483 1484 1485 1485 1486 1487 1487 1488 1489 1490 1490 1491 1492 1493 1493 1494 1494 1495 1495 1496 1496 1497 1497 1498 1498 1498 1499 1499 1500 1500 1501 1501 1502 1502 1502 1503 1503 1503 1503 1503 1503 1504 1504 1505 1505 1505 1505 1505 1506 1506 1506 1506 1506 1506 1506 1507 1507
1470 1471 1473 1473 1475 1476 1477 1478 1478 1479 1480 1481 1482 1483 1483 1484 1485 1485 1486 1487 1488 1488 1489 1490 1490 1491 1492 1493 1493 1494 1494 1495 1495 1495 1496 1496 1496 1497 1497 1498 1498 1498 1499 1499 1500 1500 1500 1500 1501 1501 1501 1501 1502 1502 1502 1503 1503 1503 1503 1503 1504 1504 1504 1505 1505 1505 1504 1505 1506
1469 1470 1472 1473 1474 1475 1476 1476 1477 1478 1479 1480 1481 1481 1482 1483 1483 1484 1485 1486 1486 1487 1488 1488 1489 1490 1491 1491 1492 1493 1493 1493 1494 1494 1494 1494 1495 1495 1496 1496 1496 1497 1497 1497 1498 1498 1498 1498 1498 1499 1499 1499 1499 1500 1500 1501 1501 1501 1501 1502 1502 1503 1503 1503 1503 1503 1503 1503 1504
1468 1470 1471 1472 1473 1474 1474 1475 1476 1477 1478 1478 1479 1480 1481 1482 1483 1483 1484 1484 1485 1486 1487 1487 1488 1489 1489 1490 1491 1491 1492 1492 1492 1493 1493 1493 1493 1494 1494 1494 1494 1495 1495 1495 1495 1496 1496 1496 1496 1497 1497 1497 1498 1498 1499 1499 1499 1499 1500 1500 1501 1501 1502 1502 1502 1502 1501 1501 1502
1468 1469 1470 1471 1472 1473 1473 1474 1475 1476 1477 1478 1478 1479 1480 1481 1482 1483 1483 1483 1484 1485 1486 1486 1487 1488 1488 1488 1489 1489 1490 1490 1491 1491 1491 1492 1492 1492 1492 1492 1493 1493 1493 1493 1493 1494 1494 1494 1494 1495 1495 1496 1496 1497 1497 1498 1498 1498 1498 1499 1499 1500 1500 1500 1500 1500 1500 1500 1500
1467 1468 1469 1470 1471 1472 1473 1473 1474 1475 1476 1477 1478 1479 1479 1480 1481 1482 1482 1483 1483 1484 1484 1485 1486 1486 1487 1487 1488 1488 1488 1489 1489 1489 1490 1490 1490 1490 1490 1491 1491 1491 1491 1492 1492 1492 1492 1493 1493 1493 1494 1494 1494 1495 1495 1495 1496 1496 1496 1497 1498 1498 1498 1498 1498 1498 1498 1498 1498
1466 1467 1468 1469 1470 1471 1472 1473 1474 1475 1475 1476 1477 1478 1478 1479 1480 1480 1481 1482 1482 1483 1483 1484 1484 1485 1485 1486 1486 1487 1487 1487 1488 1488 1488 1488 1488 1489 1489 1489 1489 1490 1490 1490 1490 1490 1491 1491 1492 1492 1492 1492 1493 1493 1493 1493 1493 1494 1494 1495 1496 1496 1497 1497 1497 1497 1497 1497 1497
1465 1466 1467 1468 1469 1470 1471 1472 1473 1474 1475 1475 1476 1477 1478 1478 1479 1479 1480 1481 1481 1482 1482 1483 1483 1483 1484 1484 1485 1485 1485 1486 1486 1486 1487 1487 1487 1487 1488 1488 1488 1488 1488 1489 1489 1489 1489 1489 1490 1490 1490 1490 1491 1491 1491 1492 1492 1493 1493 1494 1494 1495 1495 1495 1495 1495 1495 1495 1495
1464 1466 1467 1468 1468 1469 1470 1471 1472 1473 1474 1474 1475 1476 1477 1477 1478 1478 1479 1480 1480 1481 1481 1482 1482 1482 1483 1483 1483 1483 1484 1484 1484 1485 1485 1485 1486 1486 1486 1486 1487 1487 1487 1487 1487 1487 1488 1488 1488 1488 1488 1489 1489 1489 1490 1490 1491 1491 1492 1492 1493 1493 1493 1493 1493 1493 1493 1493 1493
1464 1465 1466 1467 1468 1469 1470 1471 1472 1472 1473 1474 1474 1475 1476 1476 1477 1478 1478 1478 1479 1480 1480 1480 1481 1481 1481 1481 1482 1482 1483 1483 1483 1483 1483 1484 1484 1484 1485 1485 1485 1486 1486 1486 1486 1486 1486 1486 1486 1487 1487 1487 1487 1488 1488 1488 1489 1490 1490 1491 1491 1492 1492 1492 1492 1492 1492 1492 1492
1463 1464 1465 1466 1467 1468 1469 1470 1471 1472 1472 1473 1474 1474 1475 1475 1476 1477 1477 1478 1478 1478 1479 1479 1479 1479 1480 1480 1480 1481 1481 1481 1482 1482 1482 1483 1483 1483 1483 1483 1484 1484 1484 1484 1484 1484 1484 1484 1485 1485 1485 1485 1485 1486 1486 1487 1488 1488 1489 1489 1490 1490 1490 1490 1490 1490 1490 1490 1490
1463 1464 1465 1466 1467 1468 1468 1469 1470 1471 1471 1472 1473 1473 1474 1474 1475 1475 1476 1476 1477 1477 1477 1478 1478 1478 1478 1479 1479 1479 1480 1480 1480 1480 1481 1481 1481 1482 1482 1482 1482 1482 1483 1483 1483 1483 1483 1483 1483 1483 1483 1483 1484 1484 1484 1485 1486 1487 1487 1488 1488 1488 1488 1488 1488 1488 1488 1488 1488
1463 1463 1464 1465 1466 1467 1468 1468 1469 1470 1470 1471 1472 1472 1473 1473 1474 1474 1474 1475 1475 1475 1476 1476 1476 1477 1477 1477 1478 1478 1478 1478 1478 1479 1479 1479 1480 1480 1480 1480 1480 1481 1481 1481 1481 1482 1482 1482 1482 1482 1482 1482 1482 1483 1483 1484 1485 1485 1486 1486 1487 1487 1487 1487 1487 1487 1487 1487 1487
1462 1463 1464 1464 1465 1466 1467 1468 1468 1469 1469 1470 1471 1471 1472 1472 1473 1473 1473 1473 1473 1474 1474 1474 1475 1475 1475 1475 1476 1476 1476 1476 1477 1477 1477 1478 1478 1478 1478 1479 1479 1479 1479 1480 1480 1480 1480 1480 1480 1480 1480 1480 1481 1481 1482 1483 1483 1484 1485 1485 1485 1486 1486 1486 1486 1486 1486 1486 1486
1462 1463 1463 1464 1465 1465 1466 1467 1467 1468 1468 1469 1470 1470 1470 1471 1471 1471 1472 1472 1472 1472 1473 1473 1473 1473 1473 1474 1474 1474 1474 1475 1475 1475 1476 1476 1477 1477 1477 1477 1478 1478 1478 1478 1479 1479 1479 1478 1478 1478 1479 1479 1479 1480 1481 1481 1482 1483 1483 1484 1484 1484 1484 1484 1484 1484 1484 1484 1485
1461 1462 1463 1463 1464 1465 1465 1466 1466 1467 1468 1468 1468 1469 1469 1469 1469 1470 1470 1470 1470 1471 1471 1471 1471 1471 1472 1472 1472 1473 1473 1473 1473 1474 1474 1475 1475 1475 1475 1476 1476 1476 1477 1477 1477 1477 1477 1477 1477 1477 1477 1478 1478 1479 1479 1480 1481 1481 1482 1482 1483 1483 1483 1483 1483 1483 1483 1483 1483
1460 1461 1462 1463 1463 1464 1464 1465 1465 1466 1466 1467 1467 1467 1468 1468 1468 1468 1468 1468 1469 1469 1469 1469 1469 1470 1470 1470 1471 1471 1471 1472 1472 1472 1473 1473 1473 1474 1474 1474 1474 1475 1475 1476 1476 1476 1476 1476 1476 1476 1476 1476 1477 1478 1478 1479 1479 1480 1481 1481 1481 1481 1482 1482 1482 1482 1482 1482 1482
1460 1460 1461 1462 1462 1463 1463 1464 1464 1465 1465 1465 1466 1466 1466 1466 1467 1467 1467 1467 1467 1468 1468 1468 1468 1468 1468 1469 1469 1469 1470 1470 1471 1471 1471 1472 1472 1472 1473 1473 1473 1473 1474 1474 1474 1474 1474 1474 1474 1475 1475 1475 1476 1476 1477 1478 1478 1479 1479 1480 1480 1480 1480 1480 1480 1480 1480 1480 1480
1459 1460 1460 1461 1461 1462 1463 1463 1463 1463 1464 1464 1464 1465 1465 1465 1465 1465 1466 1466 1466 1466 1466 1466 1467 1467 1467 1467 1468 1468 1468 1469 1469 1470 1470 1470 1471 1471 1471 1471 1472 1472 1472 1473 1473 1473 1473 1473 1473 1473 1474 1474 1475 1475 1476 1477 1477 1478 1478 1478 1478 1478 1478 1478 1479 1479 1479 1478 1478
1458 1459 1459 1460 1461 1461 1461 1462 1462 1463 1463 1463 1463 1463 1464 1464 1464 1464 1464 1464 1464 1465 1465 1465 1465 1465 1466 1466 1466 1467 1467 1467 1468 1468 1469 1469 1469 1469 1470 1470 1470 1471 1471 1471 1471 1471 1471 1472 1472 1472 1473 1473 1474 1474 1475 1475 1476 1476 1477 1477 1477 1477 1477 1477 1477 1477 1477 1477 1477
1458 1458 1459 1459 1460 1460 1460 1461 1461 1462 1462 1462 1463 1463 1463 1463 1463 1463 1463 1463 1463 1463 1463 1464 1464 1464 1464 1465 1465 1465 1466 1466 1466 1467 1467 1468 1468 1468 1468 1469 1469 1469 1469 1470 1470 1470 1470 1471 1471 1471 1472 1472 1473 1473 1474 1474 1475 1475 1475 1476 1476 1476 1476 1476 1476 1476 1476 1475 1475
1457 1458 1458 1459 1459 1459 1460 1460 1461 1461 1461 1462 1462 1462 1462 1462 1462 1462 1462 1462 1462 1463 1463 1463 1463 1463 1463 1463 1464 1464 1464 1465 1465 1465 1466 1466 1467 1467 1467 1467 1468 1468 1468 1468 1469 1469 1469 1470 1470 1470 1471 1471 1472 1472 1473 1473 1473 1474 1474 1474 1475 1475 1475 1475 1474 1474 1474 1473 1473
1457 1458 1458 1458 1459 1459 1459 1460 1460 1460 1461 1461 1461 1461 1461 1461 1461 1461 1461 1461 1462 1462 1462 1462 1462 1462 1462 1463 1463 1463 1463 1463 1464 1464 1464 1465 1465 1465 1466 1466 1466 1467 1467 1468 1468 1468 1468 1469 1469 1469 1470 1470 1471 1471 1472 1472 1473 1473 1473 1473 1473 1473 1473 1473 1473 1473 1472 1472 1471
1457 1457 1458 1458 1458 1459 1459 1459 1459 1460 1460 1460 1460 1460 1460 1460 1460 1460 1461 1461 1461 1461 1461 1461 1461 1461 1461 1462 1462 1462 1462 1463 1463 1463 1463 1464 1464 1464 1465 1465 1465 1466 1466 1467 1467 1467 1468 1468 1468 1469 1469 1470 1470 1470 1471 1471 1472 1472 1472 1472 1472 1472 1472 1471 1471 1470 1470 1469 1468
1457 1457 1457 1458 1458 1458 1458 1458 1459 1459 1459 1459 1459 1459 1459 1459 1460 1460 1460 1460 1460 1460 1460 1460 1460 1461 1461 1461 1461 1461 1462 1462 1462 1463 1463 1463 1463 1463 1464 1464 1465 1465 1465 1466 1466 1467 1467 1468 1468 1468 1469 1469 1469 1469 1470 1470 1470 1470 1470 1470 1470 1469 1469 1469 1468 1468 1467 1466 1466
1456 1456 1457 1457 1457 1458 1458 1458 1458 1458 1458 1458 1458 1459 1459 1459 1459 1459 1459 1459 1460 1460 1460 1460 1460 1460 1460 1460 1461 1461 1461 1461 1462 1462 1462 1462 1463 1463 1463 1464 1464 1464 1465 1465 1466 1466 1467 1467 1468 1468 1468 1468 1468 1468 1468 1468 1468 1468 1468 1468 1467 1467 1467 1467 1466 1465 1465 1464 1463
1456 1456 1456 1457 1457 1457 1457 1458 1458 1458 1458 1458 1458 1458 1458 1459 1459 1459 1459 1459 1459 1459 1459 1459 1460 1460 1460 1460 1460 1460 1461 1461 1461 1461 1462 1462 1462 1463 1463 1463 1463 1464 1464 1465 1466 1466 1467 1467 1467 1468 1468 1468 1467 1467 1467 1467 1466 1466 1466 1465 1465 1465 1465 1464 1464 1463 1463 1462 1461
1456 1456 1456 1456 1457 1457 1457 1457 1457 1458 1458 1458 1458 1458 1458 1458 1458 1459 1459 1459 1459 1459 1459 1459 1459 1459 1460 1460 1460 1460 1460 1461 1461 1461 1462 1462 1462 1463 1463 1463 1463 1464 1464 1465 1465 1466 1466 1466 1466 1466 1466 1466 1466 1465 1465 1465 1465 1464 1464 1463 1463 1463 1463 1462 1462 1461 1460 1460 1459
1455 1456 1456 1456 1457 1457 1457 1457 1457 1457 1458 1458 1458 1458 1458 1458 1458 1458 1458 1459 1459 1459 1459 1459 1459 1459 1459 1460 1460 1460 1460 1461 1461 1461 1462 1462 1462 1463 1463 1463 1463 1464 1464 1464 1464 1465 1465 1465 1465 1465 1464 1464 1464 1464 1464 1463 1463 1463 1462 1462 1462 1461 1461 1460 1460 1459 1458 1457 1457
1455 1455 1456 1456 1456 1457 1457 1457 1457 1457 1458 1458 1458 1458 1458 1458 1458 1458 1458 1459 1459 1459 1459 1459 1459 1459 1460 1460 1460 1460 1461 1461 1461 1461 1462 1462 1462 1462 1463 1463 1463 1463 1463 1463 1463 1463 1463 1463 1463 1463 1463 1463 1463 1463 1462 1462 1461 1461 1460 1460 1459 1459 1458 1458 1457 1456 1456 1455 1454
1455 1456 1456 1456 1456 1457 1457 1457 1457 1457 1458 1458 1458 1458 1458 1458 1458 1458 1458 1459 1459 1459 1459 1459 1459 1460 1460 1460 1460 1460 1461 1461 1461 1461 1461 1461 1462 1462 1462 1462 1462 1462 1462 1462 1462 1462 1462 1462 1462 1462 1462 1462 1462 1461 1461 1460 1459 1459 1458 1458 1457 1457 1456 1455 1454 1454 1453 1452 1452
1455 1456 1456 1456 1457 1457 1457 1457 1457 1458 1458 1458 1458 1458 1458 1458 1458 1459 1459 1459 1459 1459 1459 1459 1460 1460 1460 1460 1460 1461 1461 1461 1461 1461 1461 1461 1461 1461 1461 1461 1461 1461 1461 1461 1461 1462 1462 1462 1462 1461 1461 1461 1460 1459 1458 1458 1457 1457 1456 1455 1455 1454 1453 1453 1452 1451 1451 1450 1449